Location: Baumgarten
(49.0970°N, 12.7493°E)
Time: 08:01:36
(UTC+00:00)

Cosmos 1076 Rocket - Pass Details

Date: 05 July 2020
Orbit: 589 x 613 km, 82.5° (Epoch: 04 August)

Event Time Altitude Azimuth Distance (km) Brightness Sun altitude
Exits shadow 21:36:07 26° 169° (S) 1,203 4.4 -15.0°
Maximum altitude 21:38:26 63° 96° (E) 674 3.6 -15.1°
Drops below altitude 10° 21:42:40 10° 16° (NNE) 1,944 6.9 -15.4°
Sets 21:44:54 0° 13° (NNE) 2,847 7.9 -15.5°
